Lid_Strength_Index
5 5 5 5 5 5 6 6 7 6 7 7 7 7 7 7 6 6 5 5 5 4
5 5 5 5 6 7 7 7 8 7 8 8 8 8 8 8 7 7 6 6 5 5
6 6 6 7 7 7 8 8 8 9 9 9 9 9 9 9 8 8 7 6 7 6
6 7 7 7 7 8 9 9 9 9 9 9 9 10 10 10 9 9 8 8 7 7
7 7 8 7 8 8 9 9 9 9 9 9 9 10 10 10 9 9 9 9 9 8
7 7 7 8 8 7 8 8 8 8 9 9 9 10 10 10 10 10 10 10 10 10
7 7 7 7 7 8 8 8 8 9 9 9 9 9 9 9 10 10 11 10 10 10
7 7 8 8 8 8 8 8 8 9 9 8 8 9 9 8 8 9 10 11 10 9
8 8 9 9 9 9 10 10 10 9 9 8 8 8 8 8 9 10 11 11 11 10
8 8 9 9 9 9 9 9 11 10 10 9 8 8 8 8 10 11 11 12 12 12
8 9 9 9 10 9 9 9 10 10 9 9 9 8 8 9 12 13 13 13 13 15
8 9 10 10 11 10 10 10 11 10 11 11 10 9 9 12 14 14 15 15 14 14
8 9 11 11 11 11 10 11 11 12 12 10 11 9 10 12 15 16 15 16 14 12
8 9 10 11 11 11 12 12 12 12 12 12 12 12 10 11 15 16 17 17 16 14